Volver al catálogo

STARLINK-34314

ActivoComunicacionesSSO
NORAD 64146·PAYLOAD·🇺🇸 United States

Lanzado May 27, 2025 desde Vandenberg Space Force Base

Loading…

Próximos Pases (próximas 24 horas)

TLE

ActualizadoSource: CelesTrak SupGP

Época: Sep 14, 2026, 21:02 UTC

1 64146C 25112A   26257.87687500 -.00012957  00000+0 -40231-3 0  2570
2 64146  97.2830 304.9787 0000994  97.5834 260.7387 15.33439017    18

Sigue STARLINK-34314 en tiempo real con AllMySat

Download on the App Store